Location: Eldred Sherwood Park Lake Dam
(42.9416°N, 93.5655°W)
Time: 12:09:15
(UTC+00:00)

Explorer 11/Cluster Stage 4 - Pass Details

Date: 17 December 2025
Orbit: 463 x 1180 km, 28.8° (Epoch: 13 January)

Event Time Altitude Azimuth Distance (km) Brightness Sun altitude
Rises 23:09:02 0° 227° (SW) 4,017 12.0 -5.3°
Reaches altitude 10° 23:12:34 10° 213° (SSW) 3,084 10.7 -5.8°
Maximum altitude 23:18:12 22° 167° (SSE) 2,300 9.1 -6.8°
Drops below altitude 10° 23:23:40 10° 120° (ESE) 2,995 9.2 -7.7°
Sets 23:27:02 0° 106° (ESE) 3,872 9.7 -8.2°
Enters shadow 23:27:07 - 106° (ESE) 3,895 9.7 -8.2°
